STARLINK-11463, 62066

Orbit data source: Space-Track

STARLINK-11463, 62066 is a payload satellite owned by SpaceX/Seattle (US) in LEO that was launched on Sun, 24 Nov 2024 UTC via an FALCON 9 launch vehicle from the Air Force Western Test Range (AFWTR). Payload-class satellites include a variety of spacecraft equipped with specific instruments for various scientific and technological missions. These include communications satellites like Starlink; space stations such as the ISS; scientific satellites like the Hubble; Earth observation satellites from companies like Planet Labs, Umbra, and HawkEye 360; GPS; miniature CubeSats for education and research; and military/defense satellites.

Loading next visibility...
Identifier
62066, 2024-217K
Orbit
LEO
Country
Flag of USUS
Related business
Manufacturer
SpaceX/Seattle
Mission
Operational Commercial Communications
Bus & Motor
STARLINK V2MD, Unknown motor
Mass
960 kg wet, ~910 kg dry
Launch date (UTC)
2024-11-24 (1 year ago)
Launch vehicle
FALCON 9
Launch site
Air Force Western Test Range (AFWTR)
Object type
Payload
Rocket body
Debris
Shape & HBR
Box + 2 Pan, 18.1 m
Radar Cross Section
36.964 m², Large (>1 m²)

Expand to show TLE details & history
Last TLE update: 16 hours ago

TLE from 16 hours ago
0 STARLINK-11463
1 62066U 24217K   26094.98261832  .00111267  00000-0  91167-3 0  9991
2 62066  53.1567 301.6027 0001117  60.6717 299.4412 15.69691812 79303
Epoch: 2026-04-04T23:34Z
TLE epoch observation values (Epoch: 2026-04-04T23:34:58.222Z)
Latitude
-0.00007°
Longitude
114.56548°
Altitude
360.324 km
Speed
7.695 km/s
True Right ascension
20h 06m 24s
True Declination
0° 00' 00"
Sunlit
Object was in daylight at epoch
Visualization orbit readout
Latitude
Unknown
Longitude
Unknown
Altitude
Unknown
Speed
Unknown
Apparent Right ascension
Unknown
Apparent Declination
Unknown
Sunlit
N/A
Visualization observer readout
Local Sidereal Time
21:57:17
Azimuth
Unknown
Elevation
Unknown
Doppler factor
Unknown
Orbital elements
Apogee altitude
360.793 km
Perigee altitude
359.287 km
Semi-major axis
6,738.177 km
Eccentricity
0.00011
Inclination
53.1567°
RAAN
301.6027°
Arg. of periapsis
60.6717°
True anomaly
299.43005°
Mean anomaly
299.4412°
Eccentric anomaly
299.43563°
Mean motion
3.924 °/min
Orbital period
91.74 mins
BSTAR
0.00091167
Loading maneuver chart data...
Computing Atmospheric mass density...
Loading historical data...
Loading historical data...
Loading historical data...
Loading historical data...
Loading historical data...
Loading historical data...
Loading historical data...

Documentation

Showing up to 5 results
|